SCP
0 0 0 0 0 0 0 0 0 0 0 0 0 0 0 0 0 0 0 0 0 0 0 0 0 0 0 0 0 -0 0 0 0 -0 -0 -0 0 0 0 0 0 0 0 0 0 0 0 0 0 0 0 0 0 0
0 0 0 0 0 0 0 0 0 0 0 0 0 0 0 0 0 0 0 0 0 0 0 0 -0 -0 -0 0 0 0 0 0 -0 0 0 0 0 0 0 0 0 0 0 0 0 0 0 0 0 0 0 0 0 0
0 0 0 0 0 0 0 0 0 0 0 0 0 0 0 0 0 0 0 0 0 0 0 -0 -0 0 0 0 0 0 0 0 0 0 0 0 0 0 0 0 0 0 0 0 0 0 0 0 0 0 0 0 0 0
0 0 0 0 0 0 0 0 0 0 0 0 0 0 0 0 0 0 0 0 0 0 -0 -0 -0 0 0 0 0 0 0 0 0 0 -0 0 0 0 0 0 0 0 0 0 0 0 0 0 0 0 0 0 0 0
0 0 0 0 0 0 0 0 0 0 0 -0 -0 -0 -0 -0 0 0 0 0 0 0 0 0 -0 0 -0 -0 -0 0 0 0 0 0 0 0 0 0 0 0 0 0 0 0 0 0 0 0 0 0 -0 0 0 0
0 0 0 0 0 0 0 0 0 0 -0 -0 -0 -0 -0 -0 0 0 0 0 0 0 0 -0 0 -0 -0 0 -0 0 0 0 -0 0 0 0 0 0 0 0 0 0 -0 0 0 0 0 0 0 -0 -0 -0 0 0
0 0 0 0 0 0 0 -0 -0 -0 -0 -0 -0 -0 -0 0 0 0 0 0 0 0 0 -0 -0 0 -0 0 -0 0 0 0 0 0 0 0 0 0 0 0 0 0 0 0 0 0 0 0 0 0 -0 -0 0 0
0 0 0 0 0 0 -0 -0 -0 -0 -0 -0 -0 -0 0 0 0 0 0 0 0 0 0 -0 -0 0 -0 -0 -0 -0 0 0 0 0 0 0 0 0 0 0 0 0 0 0 0 0 0 0 0 -0 0 0 0 0
0 0 0 0 -0 -0 -0 -0 -0 -0 0 0 -0 0 0 0 0 0 0 0 0 0 -0 -0 0 -0 -0 -0 0 -0 0 -0 0 0 0 0 -0 0 0 0 0 0 0 0 -0 -0 -0 0 0 0 0 0 0 -0
0 0 0 0 -0 -0 -0 -0 -0 0 0 -0 0 0 0 0 0 0 0 0 0 0 0 -0 -0 -0 0 -0 0 -0 -0 0 -0 0 0 0 0 -0 -0 0 0 0 -0 -0 -0 -0 -0 0 0 0 0 0 -0 -0
0 0 0 0 0 0 -0 0 0 0 0 0 0 0 0 0 0 0 0 0 0 -0 0 -0 0 -0 0 -0 0 0 0 0 0 0 0 0 0 -0 -0 -0 0 0 0 0 0 0 0 0 -0 0 0 0 0 0
0 0 0 0 0 -0 -0 0 0 0 0 0 0 0 0 0 0 0 0 0 0 0 0 0 0 0 0 -0 0 0 0 0 0 0 0 0 -0 0 0 0 -0 0 -0 -0 -0 -0 -0 -0 -0 -0 -0 -0 0 0
0 0 0 0 0 -0 -0 0 0 0 0 0 0 0 0 0 0 0 0 0 0 0 0 -0 -0 -0 0 0 0 0 0 0 0 0 0 0 -0 0 0 0 0 -0 -0 -0 -0 -0 -0 -0 -0 -0 0 0 0 0
0 0 0 -0 -0 -0 -0 0 0 0 0 0 0 0 0 0 0 0 0 0 0 0 -0 -0 -0 -0 -0 -0 0 0 0 0 0 0 0 0 -0 -0 -0 -0 -0 -0 -0 -0 -0 -0 -0 -0 -0 0 0 0 0 0
0 0 0 0 0 0 0 -0 0 0 0 0 0 0 0 0 0 0 0 0 0 0 0 -0 -0 -0 -0 -0 0 0 0 0 0 0 0 0 -0 -0 -0 -0 -0 -0 -0 -0 -0 -0 -0 -0 0 0 0 0 0 0
0 0 0 0 0 0 -0 -0 0 0 0 0 0 0 0 0 0 0 0 0 0 0 0 -0 0 -0 -0 0 0 0 0 0 0 0 0 0 -0 -0 -0 -0 -0 -0 -0 -0 -0 -0 0 0 0 0 0 0 0 0
0 0 0 0 0 0 0 0 0 0 0 0 0 0 0 0 0 0 0 0 0 0 0 0 0 0 0 0 0 0 0 0 0 0 0 -0 -0 -0 -0 -0 -0 -0 -0 -0 -0 0 0 0 0 0 0 0 0 0
0 0 0 0 0 0 0 0 0 0 0 0 0 0 0 0 0 0 0 0 0 0 0 0 0 0 0 0 0 0 0 0 0 0 0 0 -0 -0 -0 -0 -0 -0 -0 0 0 0 0 0 0 -0 -0 -0 -0 -0
0 0 0 0 0 0 0 0 0 0 0 0 0 0 0 0 0 0 0 0 0 0 0 -0 0 0 0 0 0 0 0 0 0 0 0 0 -0 -0 -0 -0 -0 0 0 0 -0 -0 0 0 -0 -0 -0 -0 -0 0
0 0 -0 0 0 0 0 0 0 0 0 0 0 0 0 0 0 0 0 0 0 -0 0 -0 0 -0 0 0 0 0 0 0 0 0 0 0 0 0 -0 0 0 -0 -0 -0 -0 -0 -0 -0 0 0 0 0 0 0
-0 0 0 0 0 0 0 0 0 0 0 0 0 0 0 0 0 0 0 0 0 0 0 0 0 0 -0 0 0 0 0 0 0 0 0 0 0 0 0 0 0 0 -0 -0 -0 -0 -0 -0 0 0 0 0 -0 -0
0 0 0 0 0 0 0 0 0 0 0 0 0 0 0 0 0 0 0 0 0 0 0 0 0 0 0 0 -0 -0 0 0 0 0 0 0 0 0 0 0 0 0 0 0 -0 0 -0 -0 0 -0 -0 -0 -0 -0
0 0 0 0 0 0 0 0 0 0 0 0 0 0 0 0 0 0 -0 0 0 0 0 0 0 0 0 -0 -0 0 0 0 0 0 0 0 0 0 0 0 0 0 0 0 0 0 0 0 0 -0 -0 -0 -0 -0
0 0 0 0 0 0 0 0 0 0 0 0 0 0 0 0 0 0 0 0 0 0 0 -0 0 0 0 0 0 0 -0 0 0 0 0 0 0 0 0 0 0 0 0 0 0 0 0 -0 -0 -0 -0 -0 -0 -0
0 0 0 0 0 0 0 0 0 0 0 0 0 0 0 0 0 0 0 0 0 0 0 0 -0 -0 -0 0 0 -0 -0 -0 0 0 0 0 0 0 0 0 0 0 0 0 0 0 0 0 0 -0 -0 -0 -0 -0
0 0 0 0 0 0 0 0 0 0 0 0 0 0 0 0 0 0 0 0 0 0 -0 -0 -0 -0 -0 -0 0 -0 0 -0 0 0 0 0 0 0 0 0 0 0 -0 -0 0 -0 -0 -0 -0 -0 -0 -0 0 0
0 0 0 0 0 -0 0 -0 0 0 0 0 0 0 0 0 0 0 0 0 0 -0 -0 -0 -0 -0 -0 -0 -0 -0 0 -0 0 0 0 0 0 0 0 -0 0 0 0 0 0 0 -0 -0 -0 -0 -0 0 0 0
0 0 0 0 -0 -0 -0 -0 -0 0 0 0 0 0 0 0 0 0 0 0 0 0 0 -0 -0 0 -0 -0 -0 -0 -0 0 0 0 0 0 0 0 0 0 0 0 0 0 0 0 0 0 0 0 0 0 0 0
0 0 -0 -0 -0 -0 0 0 0 0 0 0 0 0 0 0 0 0 0 0 0 0 0 0 -0 -0 -0 -0 -0 -0 -0 -0 -0 -0 -0 -0 0 0 0 0 0 0 0 0 0 0 0 0 0 0 0 0 0 0
0 0 0 -0 -0 0 0 0 0 0 0 0 0 0 0 0 0 0 0 0 0 0 0 0 0 0 -0 -0 -0 -0 -0 -0 -0 -0 0 0 0 0 0 0 0 0 0 0 0 0 0 0 0 0 0 0 0 0
0 -0 0 0 0 0 0 0 0 0 0 0 0 0 0 0 0 0 0 0 0 0 0 0 0 0 0 -0 0 -0 -0 -0 0 0 0 0 0 0 0 0 0 0 0 0 0 0 0 0 0 0 0 0 0 0
-0 0 0 0 0 0 0 0 0 0 0 0 0 0 0 0 0 0 0 0 0 0 0 0 0 0 0 0 -0 -0 -0 -0 -0 -0 -0 -0 -0 -0 0 0 0 0 0 0 0 0 0 0 0 0 0 0 0 0
0 0 0 0 0 0 0 0 0 0 0 0 0 0 0 0 0 0 0 0 0 0 0 0 0 0 0 0 0 0 0 0 0 -0 -0 -0 -0 -0 -0 0 0 0 0 0 0 0 0 0 0 0 0 0 0 0
Wind_Speed_500mb
34 35 33 34 38 41 41 41 41 41 43 39 34 34 33 27 23 25 29 27 24 17 56 24 26 44 46 34 10 36 23 5 7 15 9 9 7 10 8 11 9 10 10 9 6 10 10 47 18 4 12 54 60 62
35 34 32 33 37 41 42 41 39 39 39 36 33 33 30 28 25 21 26 27 35 37 54 54 35 29 31 39 46 12 13 18 8 6 6 6 5 7 9 5 16 8 9 5 12 7 10 23 20 27 40 57 57 58
35 32 31 32 36 38 39 40 38 36 38 36 32 30 30 31 30 23 27 22 27 25 40 17 9 22 28 29 20 12 11 14 11 15 5 3 5 7 9 8 4 9 28 8 5 19 25 31 45 43 47 55 56 56
35 32 29 31 33 39 41 40 38 36 36 35 33 34 34 34 30 25 23 19 20 18 10 12 26 26 30 30 23 22 42 41 34 15 6 3 3 16 7 7 9 9 18 10 13 16 31 43 40 46 57 59 64 61
35 29 30 30 34 41 44 40 37 35 35 36 35 36 37 32 23 18 18 7 14 13 10 28 41 19 42 35 24 13 37 29 14 9 5 7 8 7 5 7 15 30 9 4 7 26 36 26 42 46 64 72 74 74
34 31 29 28 36 43 41 39 38 35 36 34 36 37 31 22 15 12 4 6 16 23 12 9 23 24 43 30 18 24 39 24 21 14 10 11 17 4 7 8 34 39 49 18 16 59 65 64 62 58 72 68 57 55
44 38 33 37 37 38 38 38 36 33 36 35 35 32 22 18 10 4 6 7 24 19 8 12 14 23 38 21 15 21 25 30 28 8 12 19 40 21 9 10 28 35 45 58 56 47 48 43 40 48 54 55 55 52
42 36 36 34 36 34 35 35 34 32 33 33 30 23 13 8 5 6 10 17 15 7 8 8 10 18 32 24 13 18 18 19 33 18 20 21 13 13 13 19 33 41 48 51 51 48 51 50 48 48 47 47 48 46
28 25 23 28 31 33 31 28 29 29 30 28 21 12 5 2 3 6 21 4 3 4 11 8 12 10 30 22 11 12 10 10 17 16 15 16 13 14 13 18 13 15 27 40 44 45 44 45 43 41 39 38 42 40
23 23 25 27 30 31 29 26 23 25 25 17 8 2 5 5 13 11 4 1 2 3 5 7 13 12 24 23 11 14 7 6 5 11 11 11 12 29 29 30 32 33 35 33 38 37 38 40 38 36 35 34 35 35
24 21 21 23 24 27 26 23 23 24 16 10 5 4 10 8 2 6 5 5 3 4 5 9 17 18 16 14 10 12 6 6 4 7 5 6 8 20 18 24 19 25 31 33 35 35 35 35 33 34 33 32 32 31
21 17 17 21 23 23 19 15 19 22 16 15 13 10 3 0 6 8 2 2 5 3 11 17 21 18 11 8 7 7 6 3 8 3 5 6 7 22 24 24 28 30 33 35 34 36 35 33 30 31 30 29 30 29
21 16 16 18 23 23 15 11 14 18 15 5 4 2 2 5 3 7 6 5 1 5 12 17 17 11 7 5 7 5 6 7 2 5 5 5 21 26 25 26 29 28 29 32 33 33 32 30 28 27 29 26 28 29
15 16 17 20 24 20 11 10 11 11 3 4 4 3 6 6 5 3 5 4 3 2 13 17 13 5 6 5 5 6 4 4 5 2 5 11 32 33 27 29 31 28 26 28 29 28 27 27 27 25 24 24 26 28
15 17 19 20 14 9 9 11 10 5 4 5 4 5 7 1 4 5 8 9 3 7 10 16 9 6 4 4 2 5 4 2 2 4 7 30 39 34 31 33 33 30 27 26 25 25 26 25 25 26 23 23 25 28
15 16 15 9 10 10 11 9 7 10 5 6 8 8 7 7 8 6 4 7 4 4 8 9 7 5 2 4 5 1 1 1 4 8 27 33 31 29 31 32 32 27 27 26 25 26 26 25 25 26 26 24 24 25
12 8 12 13 10 8 6 10 9 6 8 7 8 11 12 8 9 3 4 6 3 5 3 3 6 1 4 4 3 2 2 4 9 21 30 30 37 32 37 39 32 31 28 27 28 27 28 28 28 24 24 26 22 26
11 14 13 10 6 4 10 12 6 8 11 13 8 8 13 12 9 7 6 7 6 3 4 5 5 7 3 2 4 7 6 9 15 22 25 25 30 34 38 39 32 32 29 26 26 27 27 26 25 21 24 24 23 23
10 11 10 7 5 7 5 7 8 7 13 9 14 13 13 12 11 9 7 6 5 9 5 4 5 4 4 5 4 9 12 16 25 24 25 27 33 41 37 31 29 30 27 26 25 22 21 18 20 20 20 18 18 19
7 5 5 8 7 4 4 6 8 8 7 2 10 15 16 13 8 7 10 10 7 5 7 5 6 7 7 7 6 10 18 18 27 33 30 33 39 34 33 31 31 32 28 25 20 21 19 17 16 16 16 16 17 18
3 7 6 6 4 8 5 5 9 7 8 9 5 11 13 12 14 12 12 14 9 6 8 16 10 5 2 6 7 12 22 28 31 32 34 38 36 33 30 28 30 28 24 21 17 17 16 12 15 17 16 14 14 16
11 14 10 9 4 5 7 11 9 3 7 7 9 12 11 15 16 12 11 12 9 10 10 4 6 9 11 14 15 17 22 20 34 28 25 30 31 28 28 27 27 24 21 19 15 14 12 11 15 19 19 16 16 15
12 15 8 7 5 9 7 9 9 7 6 4 6 7 9 10 7 12 7 8 5 8 13 13 15 13 20 26 24 24 25 26 29 32 30 26 26 24 26 25 24 24 23 20 18 15 11 10 17 20 22 21 18 17
17 11 7 9 11 7 7 11 9 8 6 11 7 8 8 7 14 8 6 5 7 19 21 23 24 26 27 26 21 21 21 19 23 26 26 27 26 23 22 24 24 22 21 22 20 18 15 13 16 19 21 22 22 20
5 7 7 8 7 7 9 8 10 8 7 11 8 8 6 10 7 7 5 8 16 23 24 27 26 27 27 25 24 22 22 23 26 27 25 24 23 25 25 25 26 24 23 22 23 22 20 18 17 18 20 21 23 22
8 12 11 10 9 10 10 6 10 11 7 6 11 5 7 5 5 5 4 9 16 25 26 28 28 26 25 29 30 28 25 21 22 23 25 25 27 28 29 29 27 25 25 23 22 25 26 24 21 22 20 21 25 21
6 8 12 12 7 10 8 10 8 7 10 10 6 8 8 7 8 6 7 8 11 20 21 19 23 24 24 24 24 24 25 24 19 20 22 25 25 23 22 21 19 19 21 25 27 28 31 30 27 25 22 20 21 22
10 6 9 11 12 11 4 9 7 8 7 6 5 7 4 2 4 5 7 8 12 18 18 19 21 20 19 20 23 23 27 31 28 29 25 23 22 20 19 16 15 15 12 19 24 26 28 29 27 26 23 20 18 20
10 11 12 14 14 11 10 6 5 6 4 5 4 3 4 6 9 11 11 10 12 17 17 21 18 18 20 22 25 25 31 39 36 35 33 27 23 23 26 27 21 16 14 20 23 24 26 27 26 24 20 16 14 14
9 16 11 12 9 10 10 12 7 4 3 4 3 3 7 12 12 12 9 8 7 7 9 13 17 20 24 21 22 30 32 33 34 32 30 27 23 22 30 34 32 26 23 22 26 29 32 32 29 25 20 15 13 13
7 14 8 11 8 14 19 14 11 8 5 5 6 7 6 7 6 6 8 8 7 9 9 11 14 22 28 32 31 30 35 40 32 28 22 16 13 18 25 28 30 32 32 30 28 31 33 31 25 23 22 19 18 15
16 15 11 8 9 10 10 10 10 9 6 4 11 10 5 5 6 6 6 10 12 14 15 15 13 16 26 29 28 24 30 27 33 32 28 22 20 21 22 20 21 26 33 35 33 31 30 29 26 25 24 23 21 18
17 12 15 11 7 6 7 8 7 3 5 6 7 8 5 5 4 4 4 4 6 7 6 8 10 9 16 25 29 27 26 21 27 35 32 29 21 26 23 16 18 24 27 29 31 32 32 31 29 27 26 26 25 23
Wind_Direction_500mb
296 301 307 319 324 326 328 332 332 334 341 340 340 342 339 341 345 340 321 307 308 270 296 279 301 296 296 299 303 310 321 25 305 6 359 357 333 5 345 18 2 47 348 27 340 105 100 347 318 279 91 132 137 144
289 296 305 313 320 324 329 328 329 333 339 338 336 336 337 338 335 332 323 314 313 288 279 297 297 295 277 282 283 286 271 289 315 337 1 311 328 344 344 36 11 55 21 60 26 57 12 2 46 97 126 126 127 128
283 290 298 310 317 321 324 322 326 330 335 333 332 333 333 329 325 317 308 324 317 292 311 301 334 330 316 311 298 284 292 315 272 281 266 272 315 339 6 36 30 31 7 80 161 31 33 47 57 89 107 112 115 118
278 283 290 304 316 318 319 319 323 326 331 331 329 326 326 321 313 306 307 317 329 295 291 300 322 342 344 337 305 284 306 327 311 297 228 304 337 10 47 36 41 349 314 76 86 113 78 48 75 94 102 104 107 110
262 274 288 299 313 319 314 315 319 321 327 328 326 323 324 320 310 306 314 299 321 330 294 296 322 7 4 9 12 349 342 328 329 347 14 18 18 46 54 57 28 343 322 317 61 71 99 70 89 102 102 105 106 108
254 263 274 298 309 309 312 318 317 317 325 324 322 323 320 316 311 335 259 290 325 340 309 307 321 324 355 358 20 26 10 8 41 19 35 22 2 85 63 63 5 30 64 72 87 97 97 97 93 100 98 97 97 99
260 258 260 283 288 307 312 311 313 320 326 323 321 320 314 299 290 247 307 267 322 320 282 293 309 348 348 8 29 11 20 25 24 36 62 55 46 59 52 66 1 48 74 86 89 89 77 83 90 92 98 101 103 104
274 263 277 279 303 310 307 312 318 322 324 322 318 317 312 294 300 320 273 318 332 298 275 302 318 330 3 357 5 13 3 30 30 23 32 36 37 56 56 46 62 66 74 80 91 97 102 104 103 102 102 105 105 104
266 267 272 292 294 300 310 314 315 324 326 323 323 318 277 294 289 261 304 338 26 266 314 311 341 337 346 348 337 335 335 58 78 63 37 34 21 45 52 128 100 77 96 109 104 103 104 102 104 105 107 107 104 103
239 244 274 296 302 309 313 306 317 325 327 326 339 306 217 224 296 300 270 174 301 272 256 280 342 316 336 334 12 343 353 32 49 52 90 53 62 57 87 91 96 97 97 105 109 107 107 104 105 106 105 106 107 109
219 251 278 295 307 314 310 310 324 336 343 10 340 216 245 292 303 246 252 249 166 249 241 326 342 329 338 334 338 16 314 341 83 38 62 57 78 110 114 104 90 95 98 97 97 101 104 107 108 106 104 104 105 107
238 265 285 300 303 310 302 312 326 343 344 326 305 304 13 149 243 259 234 203 227 10 349 338 339 330 318 315 294 2 318 323 71 360 74 89 108 130 128 112 109 99 94 90 90 95 99 102 106 106 106 107 107 106
256 269 292 298 304 302 293 293 316 323 332 6 335 316 230 167 282 234 197 183 193 15 345 334 328 337 300 274 284 308 337 59 188 47 70 86 150 145 134 124 116 105 97 90 88 89 95 100 102 105 107 108 109 110
258 276 293 294 299 290 275 272 299 306 15 249 249 314 242 188 229 265 320 12 60 294 324 320 319 312 322 290 326 294 39 238 87 132 98 137 159 150 142 140 133 121 109 99 99 101 103 103 101 101 105 109 112 113
249 278 285 297 297 276 264 281 277 217 187 243 224 243 217 292 254 293 282 273 242 298 315 303 269 252 264 274 295 312 237 106 19 95 107 150 153 154 151 150 144 132 121 109 108 105 106 106 106 105 105 111 116 118
261 277 281 305 293 275 278 273 204 176 227 223 229 247 212 250 213 216 277 324 287 283 300 255 263 244 206 289 240 115 218 85 77 107 134 146 150 153 153 149 147 136 127 118 112 111 108 109 112 112 112 111 120 129
256 251 286 310 286 267 256 183 178 213 233 221 230 235 254 271 272 33 299 336 267 266 242 279 257 259 339 261 160 60 54 61 118 135 147 155 157 158 154 151 147 141 130 122 116 113 110 109 107 106 114 114 121 131
244 260 292 290 263 189 177 184 223 234 237 230 229 227 220 246 267 266 247 243 258 257 234 238 281 222 225 224 194 170 119 125 140 149 156 146 150 152 149 148 147 146 136 127 124 122 118 116 111 114 117 120 127 134
248 271 268 245 203 182 188 217 217 254 238 245 236 239 245 248 249 253 251 216 254 196 287 257 271 243 242 222 225 148 157 156 147 150 156 147 149 151 153 153 151 151 147 145 141 135 131 123 126 118 116 118 134 140
247 263 217 201 185 186 228 224 214 255 254 226 236 232 232 240 225 232 221 194 188 167 242 235 247 257 230 226 246 215 197 177 161 154 154 150 154 154 156 156 158 161 156 152 147 142 143 140 138 131 125 129 131 138
287 217 157 158 195 208 242 248 234 243 272 254 237 242 241 213 219 208 211 201 171 206 225 237 265 316 213 176 166 164 172 176 174 168 158 155 161 162 160 160 161 164 167 166 163 168 162 168 173 169 151 136 138 142
196 179 163 169 195 215 259 224 248 273 250 272 261 233 233 212 213 204 171 194 217 202 212 198 157 144 143 141 125 135 142 154 184 175 148 158 164 168 170 174 176 176 178 179 176 172 176 187 186 180 174 171 153 156
164 155 152 173 238 216 252 195 223 221 243 226 215 227 210 208 171 159 230 207 196 175 165 154 145 139 144 142 129 123 131 138 143 154 162 167 170 171 171 174 180 182 179 177 172 168 164 177 176 173 181 181 177 178
136 154 186 198 211 243 218 198 212 218 245 238 209 239 203 178 160 212 254 176 160 160 161 159 150 141 143 150 152 153 156 155 155 156 161 161 161 161 168 171 173 176 176 173 171 172 164 156 165 168 182 186 190 191
162 199 194 221 221 249 212 203 211 199 238 215 230 214 182 174 205 216 239 149 170 172 171 171 174 174 170 168 161 158 158 161 162 160 164 172 171 165 164 168 170 172 172 176 183 183 181 175 172 176 180 186 191 194
222 195 201 208 182 220 204 198 200 215 245 230 228 199 195 196 229 224 142 166 176 179 175 178 178 178 181 182 178 174 177 167 171 175 178 176 175 175 175 179 187 198 201 202 204 198 196 192 188 186 185 189 190 192
243 221 208 223 249 267 242 220 199 199 202 215 222 187 203 209 199 117 135 145 163 174 178 182 183 184 181 178 182 185 183 185 193 184 178 171 173 176 181 193 209 219 217 216 209 204 199 195 194 195 198 204 213 217
240 265 225 208 219 216 226 261 211 210 207 215 244 214 210 202 98 90 105 132 154 160 169 172 170 173 176 178 184 191 186 184 181 170 166 175 187 195 198 197 203 203 222 202 187 189 193 193 193 195 201 210 224 233
222 209 215 228 219 235 227 246 245 215 227 223 261 162 122 81 107 110 119 127 146 173 172 173 172 173 178 180 178 174 179 176 172 176 184 190 198 211 207 200 200 198 193 189 186 181 185 182 185 191 199 209 217 219
232 199 200 213 217 222 226 213 251 258 267 259 263 188 139 130 125 120 127 133 153 174 183 191 194 191 190 190 187 190 189 186 194 197 202 211 216 211 213 209 205 198 199 191 188 184 179 184 191 201 199 195 198 199
183 194 224 216 240 234 237 247 243 253 276 252 198 186 146 143 168 183 204 224 237 237 236 231 227 221 210 206 214 209 202 202 203 202 198 196 207 212 197 203 208 204 203 192 192 195 197 205 204 205 204 206 211 209
194 206 216 220 231 239 247 236 225 233 245 212 190 185 185 206 229 235 240 241 239 241 247 244 239 234 212 204 205 203 203 201 201 206 215 197 188 201 192 199 211 210 204 203 204 200 204 209 209 206 204 209 212 211
205 209 220 260 251 247 228 203 202 183 156 158 172 197 214 250 247 220 262 217 220 238 241 235 232 222 205 198 199 205 202 204 206 207 200 194 205 192 187 193 191 190 195 204 210 215 217 218 217 214 219 223 229 234
Wind_Speed_850mb
34 35 33 34 38 41 41 41 41 41 43 39 34 34 33 27 23 25 29 27 24 17 56 24 26 44 46 34 10 36 23 5 7 15 9 9 7 10 8 11 9 10 10 9 6 10 10 47 18 4 12 54 60 62
35 34 32 33 37 41 42 41 39 39 39 36 33 33 30 28 25 21 26 27 35 37 54 54 35 29 31 39 46 12 13 18 8 6 6 6 5 7 9 5 16 8 9 5 12 7 10 23 20 27 40 57 57 58
35 32 31 32 36 38 39 40 38 36 38 36 32 30 30 31 30 23 27 22 27 25 40 17 9 22 28 29 20 12 11 14 11 15 5 3 5 7 9 8 4 9 28 8 5 19 25 31 45 43 47 55 56 56
35 32 29 31 33 39 41 40 38 36 36 35 33 34 34 34 30 25 23 19 20 18 10 12 26 26 30 30 23 22 42 41 34 15 6 3 3 16 7 7 9 9 18 10 13 16 31 43 40 46 57 59 64 61
35 29 30 30 34 41 44 40 37 35 35 36 35 36 37 32 23 18 18 7 14 13 10 28 41 19 42 35 24 13 37 29 14 9 5 7 8 7 5 7 15 30 9 4 7 26 36 26 42 46 64 72 74 74
34 31 29 28 36 43 41 39 38 35 36 34 36 37 31 22 15 12 4 6 16 23 12 9 23 24 43 30 18 24 39 24 21 14 10 11 17 4 7 8 34 39 49 18 16 59 65 64 62 58 72 68 57 55
44 38 33 37 37 38 38 38 36 33 36 35 35 32 22 18 10 4 6 7 24 19 8 12 14 23 38 21 15 21 25 30 28 8 12 19 40 21 9 10 28 35 45 58 56 47 48 43 40 48 54 55 55 52
42 36 36 34 36 34 35 35 34 32 33 33 30 23 13 8 5 6 10 17 15 7 8 8 10 18 32 24 13 18 18 19 33 18 20 21 13 13 13 19 33 41 48 51 51 48 51 50 48 48 47 47 48 46
28 25 23 28 31 33 31 28 29 29 30 28 21 12 5 2 3 6 21 4 3 4 11 8 12 10 30 22 11 12 10 10 17 16 15 16 13 14 13 18 13 15 27 40 44 45 44 45 43 41 39 38 42 40
23 23 25 27 30 31 29 26 23 25 25 17 8 2 5 5 13 11 4 1 2 3 5 7 13 12 24 23 11 14 7 6 5 11 11 11 12 29 29 30 32 33 35 33 38 37 38 40 38 36 35 34 35 35
24 21 21 23 24 27 26 23 23 24 16 10 5 4 10 8 2 6 5 5 3 4 5 9 17 18 16 14 10 12 6 6 4 7 5 6 8 20 18 24 19 25 31 33 35 35 35 35 33 34 33 32 32 31
21 17 17 21 23 23 19 15 19 22 16 15 13 10 3 0 6 8 2 2 5 3 11 17 21 18 11 8 7 7 6 3 8 3 5 6 7 22 24 24 28 30 33 35 34 36 35 33 30 31 30 29 30 29
21 16 16 18 23 23 15 11 14 18 15 5 4 2 2 5 3 7 6 5 1 5 12 17 17 11 7 5 7 5 6 7 2 5 5 5 21 26 25 26 29 28 29 32 33 33 32 30 28 27 29 26 28 29
15 16 17 20 24 20 11 10 11 11 3 4 4 3 6 6 5 3 5 4 3 2 13 17 13 5 6 5 5 6 4 4 5 2 5 11 32 33 27 29 31 28 26 28 29 28 27 27 27 25 24 24 26 28
15 17 19 20 14 9 9 11 10 5 4 5 4 5 7 1 4 5 8 9 3 7 10 16 9 6 4 4 2 5 4 2 2 4 7 30 39 34 31 33 33 30 27 26 25 25 26 25 25 26 23 23 25 28
15 16 15 9 10 10 11 9 7 10 5 6 8 8 7 7 8 6 4 7 4 4 8 9 7 5 2 4 5 1 1 1 4 8 27 33 31 29 31 32 32 27 27 26 25 26 26 25 25 26 26 24 24 25
12 8 12 13 10 8 6 10 9 6 8 7 8 11 12 8 9 3 4 6 3 5 3 3 6 1 4 4 3 2 2 4 9 21 30 30 37 32 37 39 32 31 28 27 28 27 28 28 28 24 24 26 22 26
11 14 13 10 6 4 10 12 6 8 11 13 8 8 13 12 9 7 6 7 6 3 4 5 5 7 3 2 4 7 6 9 15 22 25 25 30 34 38 39 32 32 29 26 26 27 27 26 25 21 24 24 23 23
10 11 10 7 5 7 5 7 8 7 13 9 14 13 13 12 11 9 7 6 5 9 5 4 5 4 4 5 4 9 12 16 25 24 25 27 33 41 37 31 29 30 27 26 25 22 21 18 20 20 20 18 18 19
7 5 5 8 7 4 4 6 8 8 7 2 10 15 16 13 8 7 10 10 7 5 7 5 6 7 7 7 6 10 18 18 27 33 30 33 39 34 33 31 31 32 28 25 20 21 19 17 16 16 16 16 17 18
3 7 6 6 4 8 5 5 9 7 8 9 5 11 13 12 14 12 12 14 9 6 8 16 10 5 2 6 7 12 22 28 31 32 34 38 36 33 30 28 30 28 24 21 17 17 16 12 15 17 16 14 14 16
11 14 10 9 4 5 7 11 9 3 7 7 9 12 11 15 16 12 11 12 9 10 10 4 6 9 11 14 15 17 22 20 34 28 25 30 31 28 28 27 27 24 21 19 15 14 12 11 15 19 19 16 16 15
12 15 8 7 5 9 7 9 9 7 6 4 6 7 9 10 7 12 7 8 5 8 13 13 15 13 20 26 24 24 25 26 29 32 30 26 26 24 26 25 24 24 23 20 18 15 11 10 17 20 22 21 18 17
17 11 7 9 11 7 7 11 9 8 6 11 7 8 8 7 14 8 6 5 7 19 21 23 24 26 27 26 21 21 21 19 23 26 26 27 26 23 22 24 24 22 21 22 20 18 15 13 16 19 21 22 22 20
5 7 7 8 7 7 9 8 10 8 7 11 8 8 6 10 7 7 5 8 16 23 24 27 26 27 27 25 24 22 22 23 26 27 25 24 23 25 25 25 26 24 23 22 23 22 20 18 17 18 20 21 23 22
8 12 11 10 9 10 10 6 10 11 7 6 11 5 7 5 5 5 4 9 16 25 26 28 28 26 25 29 30 28 25 21 22 23 25 25 27 28 29 29 27 25 25 23 22 25 26 24 21 22 20 21 25 21
6 8 12 12 7 10 8 10 8 7 10 10 6 8 8 7 8 6 7 8 11 20 21 19 23 24 24 24 24 24 25 24 19 20 22 25 25 23 22 21 19 19 21 25 27 28 31 30 27 25 22 20 21 22
10 6 9 11 12 11 4 9 7 8 7 6 5 7 4 2 4 5 7 8 12 18 18 19 21 20 19 20 23 23 27 31 28 29 25 23 22 20 19 16 15 15 12 19 24 26 28 29 27 26 23 20 18 20
10 11 12 14 14 11 10 6 5 6 4 5 4 3 4 6 9 11 11 10 12 17 17 21 18 18 20 22 25 25 31 39 36 35 33 27 23 23 26 27 21 16 14 20 23 24 26 27 26 24 20 16 14 14
9 16 11 12 9 10 10 12 7 4 3 4 3 3 7 12 12 12 9 8 7 7 9 13 17 20 24 21 22 30 32 33 34 32 30 27 23 22 30 34 32 26 23 22 26 29 32 32 29 25 20 15 13 13
7 14 8 11 8 14 19 14 11 8 5 5 6 7 6 7 6 6 8 8 7 9 9 11 14 22 28 32 31 30 35 40 32 28 22 16 13 18 25 28 30 32 32 30 28 31 33 31 25 23 22 19 18 15
16 15 11 8 9 10 10 10 10 9 6 4 11 10 5 5 6 6 6 10 12 14 15 15 13 16 26 29 28 24 30 27 33 32 28 22 20 21 22 20 21 26 33 35 33 31 30 29 26 25 24 23 21 18
17 12 15 11 7 6 7 8 7 3 5 6 7 8 5 5 4 4 4 4 6 7 6 8 10 9 16 25 29 27 26 21 27 35 32 29 21 26 23 16 18 24 27 29 31 32 32 31 29 27 26 26 25 23
Wind_Direction_850mb
296 301 307 319 324 326 328 332 332 334 341 340 340 342 339 341 345 340 321 307 308 270 296 279 301 296 296 299 303 310 321 25 305 6 359 357 333 5 345 18 2 47 348 27 340 105 100 347 318 279 91 132 137 144
289 296 305 313 320 324 329 328 329 333 339 338 336 336 337 338 335 332 323 314 313 288 279 297 297 295 277 282 283 286 271 289 315 337 1 311 328 344 344 36 11 55 21 60 26 57 12 2 46 97 126 126 127 128
283 290 298 310 317 321 324 322 326 330 335 333 332 333 333 329 325 317 308 324 317 292 311 301 334 330 316 311 298 284 292 315 272 281 266 272 315 339 6 36 30 31 7 80 161 31 33 47 57 89 107 112 115 118
278 283 290 304 316 318 319 319 323 326 331 331 329 326 326 321 313 306 307 317 329 295 291 300 322 342 344 337 305 284 306 327 311 297 228 304 337 10 47 36 41 349 314 76 86 113 78 48 75 94 102 104 107 110
262 274 288 299 313 319 314 315 319 321 327 328 326 323 324 320 310 306 314 299 321 330 294 296 322 7 4 9 12 349 342 328 329 347 14 18 18 46 54 57 28 343 322 317 61 71 99 70 89 102 102 105 106 108
254 263 274 298 309 309 312 318 317 317 325 324 322 323 320 316 311 335 259 290 325 340 309 307 321 324 355 358 20 26 10 8 41 19 35 22 2 85 63 63 5 30 64 72 87 97 97 97 93 100 98 97 97 99
260 258 260 283 288 307 312 311 313 320 326 323 321 320 314 299 290 247 307 267 322 320 282 293 309 348 348 8 29 11 20 25 24 36 62 55 46 59 52 66 1 48 74 86 89 89 77 83 90 92 98 101 103 104
274 263 277 279 303 310 307 312 318 322 324 322 318 317 312 294 300 320 273 318 332 298 275 302 318 330 3 357 5 13 3 30 30 23 32 36 37 56 56 46 62 66 74 80 91 97 102 104 103 102 102 105 105 104
266 267 272 292 294 300 310 314 315 324 326 323 323 318 277 294 289 261 304 338 26 266 314 311 341 337 346 348 337 335 335 58 78 63 37 34 21 45 52 128 100 77 96 109 104 103 104 102 104 105 107 107 104 103
239 244 274 296 302 309 313 306 317 325 327 326 339 306 217 224 296 300 270 174 301 272 256 280 342 316 336 334 12 343 353 32 49 52 90 53 62 57 87 91 96 97 97 105 109 107 107 104 105 106 105 106 107 109
219 251 278 295 307 314 310 310 324 336 343 10 340 216 245 292 303 246 252 249 166 249 241 326 342 329 338 334 338 16 314 341 83 38 62 57 78 110 114 104 90 95 98 97 97 101 104 107 108 106 104 104 105 107
238 265 285 300 303 310 302 312 326 343 344 326 305 304 13 149 243 259 234 203 227 10 349 338 339 330 318 315 294 2 318 323 71 360 74 89 108 130 128 112 109 99 94 90 90 95 99 102 106 106 106 107 107 106
256 269 292 298 304 302 293 293 316 323 332 6 335 316 230 167 282 234 197 183 193 15 345 334 328 337 300 274 284 308 337 59 188 47 70 86 150 145 134 124 116 105 97 90 88 89 95 100 102 105 107 108 109 110
258 276 293 294 299 290 275 272 299 306 15 249 249 314 242 188 229 265 320 12 60 294 324 320 319 312 322 290 326 294 39 238 87 132 98 137 159 150 142 140 133 121 109 99 99 101 103 103 101 101 105 109 112 113
249 278 285 297 297 276 264 281 277 217 187 243 224 243 217 292 254 293 282 273 242 298 315 303 269 252 264 274 295 312 237 106 19 95 107 150 153 154 151 150 144 132 121 109 108 105 106 106 106 105 105 111 116 118
261 277 281 305 293 275 278 273 204 176 227 223 229 247 212 250 213 216 277 324 287 283 300 255 263 244 206 289 240 115 218 85 77 107 134 146 150 153 153 149 147 136 127 118 112 111 108 109 112 112 112 111 120 129
256 251 286 310 286 267 256 183 178 213 233 221 230 235 254 271 272 33 299 336 267 266 242 279 257 259 339 261 160 60 54 61 118 135 147 155 157 158 154 151 147 141 130 122 116 113 110 109 107 106 114 114 121 131
244 260 292 290 263 189 177 184 223 234 237 230 229 227 220 246 267 266 247 243 258 257 234 238 281 222 225 224 194 170 119 125 140 149 156 146 150 152 149 148 147 146 136 127 124 122 118 116 111 114 117 120 127 134
248 271 268 245 203 182 188 217 217 254 238 245 236 239 245 248 249 253 251 216 254 196 287 257 271 243 242 222 225 148 157 156 147 150 156 147 149 151 153 153 151 151 147 145 141 135 131 123 126 118 116 118 134 140
247 263 217 201 185 186 228 224 214 255 254 226 236 232 232 240 225 232 221 194 188 167 242 235 247 257 230 226 246 215 197 177 161 154 154 150 154 154 156 156 158 161 156 152 147 142 143 140 138 131 125 129 131 138
287 217 157 158 195 208 242 248 234 243 272 254 237 242 241 213 219 208 211 201 171 206 225 237 265 316 213 176 166 164 172 176 174 168 158 155 161 162 160 160 161 164 167 166 163 168 162 168 173 169 151 136 138 142
196 179 163 169 195 215 259 224 248 273 250 272 261 233 233 212 213 204 171 194 217 202 212 198 157 144 143 141 125 135 142 154 184 175 148 158 164 168 170 174 176 176 178 179 176 172 176 187 186 180 174 171 153 156
164 155 152 173 238 216 252 195 223 221 243 226 215 227 210 208 171 159 230 207 196 175 165 154 145 139 144 142 129 123 131 138 143 154 162 167 170 171 171 174 180 182 179 177 172 168 164 177 176 173 181 181 177 178
136 154 186 198 211 243 218 198 212 218 245 238 209 239 203 178 160 212 254 176 160 160 161 159 150 141 143 150 152 153 156 155 155 156 161 161 161 161 168 171 173 176 176 173 171 172 164 156 165 168 182 186 190 191
162 199 194 221 221 249 212 203 211 199 238 215 230 214 182 174 205 216 239 149 170 172 171 171 174 174 170 168 161 158 158 161 162 160 164 172 171 165 164 168 170 172 172 176 183 183 181 175 172 176 180 186 191 194
222 195 201 208 182 220 204 198 200 215 245 230 228 199 195 196 229 224 142 166 176 179 175 178 178 178 181 182 178 174 177 167 171 175 178 176 175 175 175 179 187 198 201 202 204 198 196 192 188 186 185 189 190 192
243 221 208 223 249 267 242 220 199 199 202 215 222 187 203 209 199 117 135 145 163 174 178 182 183 184 181 178 182 185 183 185 193 184 178 171 173 176 181 193 209 219 217 216 209 204 199 195 194 195 198 204 213 217
240 265 225 208 219 216 226 261 211 210 207 215 244 214 210 202 98 90 105 132 154 160 169 172 170 173 176 178 184 191 186 184 181 170 166 175 187 195 198 197 203 203 222 202 187 189 193 193 193 195 201 210 224 233
222 209 215 228 219 235 227 246 245 215 227 223 261 162 122 81 107 110 119 127 146 173 172 173 172 173 178 180 178 174 179 176 172 176 184 190 198 211 207 200 200 198 193 189 186 181 185 182 185 191 199 209 217 219
232 199 200 213 217 222 226 213 251 258 267 259 263 188 139 130 125 120 127 133 153 174 183 191 194 191 190 190 187 190 189 186 194 197 202 211 216 211 213 209 205 198 199 191 188 184 179 184 191 201 199 195 198 199
183 194 224 216 240 234 237 247 243 253 276 252 198 186 146 143 168 183 204 224 237 237 236 231 227 221 210 206 214 209 202 202 203 202 198 196 207 212 197 203 208 204 203 192 192 195 197 205 204 205 204 206 211 209
194 206 216 220 231 239 247 236 225 233 245 212 190 185 185 206 229 235 240 241 239 241 247 244 239 234 212 204 205 203 203 201 201 206 215 197 188 201 192 199 211 210 204 203 204 200 204 209 209 206 204 209 212 211
205 209 220 260 251 247 228 203 202 183 156 158 172 197 214 250 247 220 262 217 220 238 241 235 232 222 205 198 199 205 202 204 206 207 200 194 205 192 187 193 191 190 195 204 210 215 217 218 217 214 219 223 229 234